Regional Weather Roundup
Issued by NWS

Home | Current Version | Previous Version | Text Only | Print | Product List | Glossary Off
Versions: 1 2 3 4 5 6 7 8 9 10 11 12 13 14 15 16 17 18 19 20 21 22 23 24 25 26 27 28 29 30 31 32 33 34 35 36 37 38 39 40 41 42 43 44 45 46 47 48 49 50

000
ASUS44 KMEG 292010
RWRTN
TENNESSEE HOURLY STATE WEATHER ROUNDUP
NATIONAL WEATHER SERVICE MEMPHIS TN
300 PM CDT SUN MAR 29 2015

TNZ002-004-019-021-049-052-054-088>092-292100-
WEST TENNESSEE

CITY           SKY/WX    TMP DP  RH WIND       PRES   REMARKS
MEMPHIS INTL   SUNNY     66  45  46 S15       30.10F
NWS MEMPHIS      N/A     64 N/A N/A MISG        N/A
JACKSON        PTSUNNY   60  38  43 S15G23    30.11F
DYERSBURG      MOSUNNY  N/A N/A N/A S13G20    30.10F
UNION CITY     CLOUDY    55  41  58 S14       30.08F
PARIS          CLOUDY    57  30  35 S18       30.10F
HUNTINGDON     CLOUDY    58  30  34 S12       30.11F
LEXINGTON      PTSUNNY   57  36  44 S12       30.13F
SAVANNAH       CLOUDY    55  36  47 S10       30.16F
$$

TNZ008-025-027-028-033-062-065-066-292100-
NORTH MIDDLE TENNESSEE

CITY           SKY/WX    TMP DP  RH WIND       PRES   REMARKS
NASHVILLE      MOSUNNY   62  26  25 S15G23    30.16F
CLARKSVILLE    PTSUNNY   62  29  28 S13G21    30.11F
SMYRNA         SUNNY     62  27  26 SW15      30.17F
COOKEVILLE     SUNNY     61  18  18 S10       30.18F
CROSSVILLE     SUNNY     54  11  18 SW13G20   30.21F
$$

TNZ061-075-076-078-094-096-097-292100-
SOUTH MIDDLE TENNESSEE

CITY           SKY/WX    TMP DP  RH WIND       PRES   REMARKS
FAYETTEVILLE   CLOUDY    57  25  28 S10       30.22F
TULLAHOMA      MOSUNNY   61  21  21 S9        30.21F
WINCHESTER     MOSUNNY   61  27  27 S9        30.21F
MCMINNVILLE    SUNNY     59  21  23 SW12      30.19F
COLUMBIA       CLOUDY    59  34  38 S16       30.15F
SHELBYVILLE    SUNNY     61  28  29 S13       30.20F
$$

TNZ017-018-042-046-047-292100-
NORTHEAST TENNESSEE

CITY           SKY/WX    TMP DP  RH WIND       PRES   REMARKS
TRI CITIES     MOSUNNY   54   2  12 W15G23    30.24F
ELIZABETHTON   CLEAR     54  10  17 W10       30.23F
$$

TNZ012-013-036-069-073-074-292100-
CENTRAL EAST TENNESSEE

CITY           SKY/WX    TMP DP  RH WIND       PRES   REMARKS
KNOXVILLE      SUNNY     56  14  19 W12       30.23F
OAK RIDGE      SUNNY     58  13  17 VRB7      30.24F
GATLINBURG     CLEAR     55  16  21 VRB5      30.22F
MORRISTOWN     CLEAR     55  12  18 S8        30.23F
$$

TNZ083-085-099-292100-
SOUTHEAST TENNESSEE

CITY           SKY/WX    TMP DP  RH WIND       PRES   REMARKS
CHATTANOOGA    MOSUNNY   60  14  16 S10G22    30.26F
$$

SKY/WX REPORTED AS FAIR MEANS FEW OR NO CLOUDS BELOW
12 THOUSAND FEET.



USA.gov is the U.S. government's official web portal to all federal, state and local government web resources and services.